TimeMST,TemperatureF,Dew PointF,Humidity,Sea Level PressureIn,VisibilityMPH,Wind Direction,Wind SpeedMPH,Gust SpeedMPH,PrecipitationIn,Events,Conditions,WindDirDegrees,DateUTC
12:15 AM,32.0,19.4,60,30.19,10.0,South,6.9,-,N/A,,Clear,180,2012-11-25 07:15:00
12:35 AM,32.0,19.4,60,30.19,10.0,South,5.8,-,N/A,,Clear,180,2012-11-25 07:35:00
12:55 AM,33.8,19.4,56,30.18,10.0,South,3.5,-,N/A,,Clear,190,2012-11-25 07:55:00
1:15 AM,35.6,21.2,56,30.18,10.0,South,5.8,-,N/A,,Clear,180,2012-11-25 08:15:00
1:35 AM,32.0,21.2,64,30.17,10.0,South,6.9,-,N/A,,Clear,170,2012-11-25 08:35:00
1:55 AM,32.0,21.2,64,30.17,10.0,South,5.8,-,N/A,,Clear,190,2012-11-25 08:55:00
2:15 AM,32.0,21.2,64,30.16,10.0,South,6.9,-,N/A,,Clear,180,2012-11-25 09:15:00
2:35 AM,32.0,21.2,64,30.16,10.0,South,9.2,-,N/A,,Clear,190,2012-11-25 09:35:00
2:55 AM,35.6,21.2,56,30.16,10.0,South,8.1,-,N/A,,Clear,190,2012-11-25 09:55:00
3:15 AM,37.4,21.2,52,30.15,10.0,South,10.4,-,N/A,,Clear,180,2012-11-25 10:15:00
3:35 AM,37.4,21.2,52,30.15,10.0,South,10.4,-,N/A,,Clear,180,2012-11-25 10:35:00
3:55 AM,39.2,21.2,49,30.14,10.0,South,9.2,-,N/A,,Clear,180,2012-11-25 10:55:00
4:15 AM,39.2,21.2,49,30.14,10.0,South,9.2,-,N/A,,Clear,180,2012-11-25 11:15:00
4:35 AM,39.2,23.0,52,30.14,10.0,South,11.5,-,N/A,,Clear,180,2012-11-25 11:35:00
4:55 AM,41.0,23.0,49,30.13,10.0,South,10.4,-,N/A,,Clear,180,2012-11-25 11:55:00
5:15 AM,41.0,23.0,49,30.13,10.0,South,10.4,-,N/A,,Clear,190,2012-11-25 12:15:00
5:35 AM,39.2,23.0,52,30.13,10.0,South,11.5,-,N/A,,Clear,180,2012-11-25 12:35:00
5:55 AM,41.0,23.0,49,30.13,10.0,South,11.5,-,N/A,,Clear,190,2012-11-25 12:55:00
6:15 AM,42.8,23.0,46,30.14,10.0,South,12.7,-,N/A,,Clear,180,2012-11-25 13:15:00
6:35 AM,42.8,23.0,46,30.13,10.0,South,11.5,-,N/A,,Clear,180,2012-11-25 13:35:00
6:55 AM,42.8,23.0,46,30.14,10.0,South,11.5,-,N/A,,Clear,180,2012-11-25 13:55:00
7:15 AM,42.8,23.0,46,30.14,10.0,South,10.4,-,N/A,,Clear,180,2012-11-25 14:15:00
7:35 AM,44.6,23.0,43,30.14,10.0,South,11.5,-,N/A,,Clear,180,2012-11-25 14:35:00
7:55 AM,46.4,24.8,43,30.15,10.0,South,10.4,-,N/A,,Clear,180,2012-11-25 14:55:00
8:15 AM,46.4,24.8,43,30.15,10.0,South,11.5,-,N/A,,Clear,180,2012-11-25 15:15:00
8:35 AM,48.2,24.8,40,30.15,10.0,South,10.4,-,N/A,,Clear,180,2012-11-25 15:35:00
8:55 AM,50.0,26.6,40,30.16,10.0,South,9.2,-,N/A,,Clear,180,2012-11-25 15:55:00
9:15 AM,53.6,26.6,35,30.16,10.0,SSW,11.5,-,N/A,,Clear,200,2012-11-25 16:15:00
9:35 AM,55.4,26.6,33,30.16,10.0,SSW,12.7,-,N/A,,Clear,200,2012-11-25 16:35:00
9:55 AM,57.2,26.6,31,30.16,10.0,SSW,11.5,-,N/A,,Clear,210,2012-11-25 16:55:00
10:15 AM,59.0,24.8,27,30.16,10.0,SSW,11.5,-,N/A,,Clear,210,2012-11-25 17:15:00
10:35 AM,59.0,24.8,27,30.16,10.0,SSW,10.4,-,N/A,,Clear,210,2012-11-25 17:35:00
10:55 AM,59.0,24.8,27,30.16,10.0,SW,13.8,17.3,N/A,,Clear,230,2012-11-25 17:55:00
11:15 AM,59.0,24.8,27,30.15,10.0,SW,11.5,-,N/A,,Clear,220,2012-11-25 18:15:00
11:35 AM,59.0,24.8,27,30.14,10.0,WSW,15.0,18.4,N/A,,Clear,240,2012-11-25 18:35:00
11:55 AM,59.0,24.8,27,30.13,10.0,WSW,13.8,21.9,N/A,,Clear,240,2012-11-25 18:55:00
12:15 PM,59.0,24.8,27,30.11,10.0,SSW,18.4,24.2,N/A,,Clear,210,2012-11-25 19:15:00
12:35 PM,59.0,24.8,27,30.11,10.0,SSW,15.0,19.6,N/A,,Clear,200,2012-11-25 19:35:00
12:55 PM,60.8,23.0,23,30.10,10.0,SW,18.4,24.2,N/A,,Clear,220,2012-11-25 19:55:00
1:15 PM,59.0,23.0,25,30.09,10.0,SW,12.7,-,N/A,,Clear,230,2012-11-25 20:15:00
1:35 PM,60.8,23.0,23,30.08,10.0,SW,13.8,19.6,N/A,,Clear,230,2012-11-25 20:35:00
1:55 PM,60.8,23.0,23,30.08,10.0,SW,13.8,18.4,N/A,,Clear,230,2012-11-25 20:55:00
2:15 PM,60.8,24.8,25,30.07,10.0,SW,11.5,16.1,N/A,,Clear,230,2012-11-25 21:15:00
2:55 PM,60.8,23.0,23,30.06,10.0,SW,15.0,-,N/A,,Clear,230,2012-11-25 21:55:00
3:15 PM,59.0,23.0,25,30.06,10.0,SW,12.7,-,N/A,,Clear,220,2012-11-25 22:15:00
3:35 PM,59.0,23.0,25,30.06,10.0,SW,13.8,-,N/A,,Clear,220,2012-11-25 22:35:00
3:55 PM,59.0,23.0,25,30.06,10.0,SSW,12.7,-,N/A,,Clear,200,2012-11-25 22:55:00
4:15 PM,57.2,23.0,27,30.06,10.0,SSW,10.4,-,N/A,,Clear,210,2012-11-25 23:15:00
4:35 PM,57.2,23.0,27,30.06,10.0,SW,11.5,-,N/A,,Clear,220,2012-11-25 23:35:00
4:55 PM,55.4,21.2,26,30.06,10.0,SW,8.1,-,N/A,,Clear,220,2012-11-25 23:55:00
5:15 PM,53.6,21.2,28,30.06,10.0,SW,8.1,-,N/A,,Clear,220,2012-11-26 00:15:00
5:35 PM,50.0,21.2,32,30.06,10.0,SW,5.8,-,N/A,,Clear,230,2012-11-26 00:35:00
5:55 PM,48.2,23.0,37,30.06,10.0,SW,6.9,-,N/A,,Clear,220,2012-11-26 00:55:00
6:15 PM,46.4,23.0,40,30.07,10.0,SW,5.8,-,N/A,,Clear,220,2012-11-26 01:15:00
6:35 PM,46.4,23.0,40,30.07,10.0,SSW,4.6,-,N/A,,Clear,200,2012-11-26 01:35:00
6:55 PM,41.0,21.2,45,30.07,10.0,South,4.6,-,N/A,,Clear,190,2012-11-26 01:55:00
7:15 PM,41.0,19.4,42,30.08,10.0,South,6.9,-,N/A,,Clear,170,2012-11-26 02:15:00
7:35 PM,39.2,21.2,49,30.09,10.0,South,6.9,-,N/A,,Clear,180,2012-11-26 02:35:00
7:55 PM,41.0,23.0,49,30.09,10.0,South,6.9,-,N/A,,Clear,180,2012-11-26 02:55:00
8:15 PM,39.2,23.0,52,30.09,10.0,South,8.1,-,N/A,,Clear,180,2012-11-26 03:15:00
8:35 PM,41.0,23.0,49,30.09,10.0,South,5.8,-,N/A,,Clear,190,2012-11-26 03:35:00
8:55 PM,41.0,23.0,49,30.10,10.0,South,5.8,-,N/A,,Clear,190,2012-11-26 03:55:00
9:15 PM,39.2,23.0,52,30.10,10.0,South,5.8,-,N/A,,Clear,190,2012-11-26 04:15:00
9:35 PM,39.2,23.0,52,30.10,10.0,South,6.9,-,N/A,,Clear,180,2012-11-26 04:35:00
9:55 PM,39.2,23.0,52,30.11,10.0,South,3.5,-,N/A,,Clear,190,2012-11-26 04:55:00
10:15 PM,37.4,23.0,56,30.11,10.0,South,4.6,-,N/A,,Clear,190,2012-11-26 05:15:00
10:35 PM,39.2,23.0,52,30.11,10.0,South,5.8,-,N/A,,Clear,190,2012-11-26 05:35:00
10:55 PM,37.4,23.0,56,30.12,10.0,South,5.8,-,N/A,,Clear,190,2012-11-26 05:55:00
11:15 PM,37.4,23.0,56,30.12,10.0,South,6.9,-,N/A,,Clear,170,2012-11-26 06:15:00
11:35 PM,37.4,23.0,56,30.12,10.0,South,5.8,-,N/A,,Clear,190,2012-11-26 06:35:00
11:55 PM,37.4,23.0,56,30.12,10.0,South,8.1,-,N/A,,Clear,180,2012-11-26 06:55:00